COSMOS 1275 DEB

Satellite information

Favourite Embed

Satellite Type and Status

DEBRISIN ORBIT

Key statistics

Satellite COSMOS 1275 DEB at a glance.

Uptime

16104

Days in orbit

Revolutions

≈ 14.3

Per day

Orbit

LEO

Low Earth Orbit

Inclination

82.9

Latest

Satellite identification and parameters

Extended collection of information and parameters for COSMOS 1275 DEB.

Object identification

Identified? True

Debris? True

Object name: COSMOS 1275 DEB

International designator: 1981-053SS

Object number (NORAD): 42178

Object ID (CCSDS): 42178

Country: COMMONWEALTH OF INDEPENDENT STATES (CIS)

Current information (Y/N): Y

RCS size: SMALL

Orbital parameters

Period: 100.909 minutes

Inclination: 82.9406 deg

SMA: 7179.814 km

Apoapsis: 807.565 km

Periapsis: 795.793 km

RAAN: 348.5454 deg

Eccentricy: 0.0008198

Argument of periapsis: 314.2784 deg

Mean anomaly: 45.7727 deg

Mean motion: 14.27029668 rev/day

Mean motion (dot): 0.00002329 rev/day2

B* drag term: 0.00095002 1/REarth

Two-line elements (TLE)

Creation date: July 2, 2025, 2:08 a.m.

Reference frame: TEME

Reference center: EARTH

Epoch: July 1, 2025, 5:08 p.m. UTC

TLE line 0: 0 COSMOS 1275 DEB

TLE line 1: 1 42178U 81053SS 25182.71405502 .00002329 00000-0 95002-3 0 9996

TLE line 2: 2 42178 82.9406 348.5454 0008198 314.2784 45.7727 14.27029668580922

Live tracking on map

Real-time ground track for satellite COSMOS 1275 DEB.

In-orbit conjunctions

A list of the most updated potential collisions computed for object COSMOS 1275 DEB.

Target Orbit TCA Probability of collision Miss distance Type
RESURS O1-N4 SSO 2025-06-30 14:36:16 0.0002478523 115.0 (m) PAYLOAD
METEOR M2-3 DEB SSO 2025-05-26 12:24:44 0.0003880268 84.0 (m) DEBRIS
CZ-6A DEB LEO 2024-12-01 18:19:14 0.0001894782 448.0 (m) DEBRIS
NOAA 16 DEB SSO 2024-11-14 21:14:57 0.0007362612 266.0 (m) DEBRIS
NOAA 16 DEB SSO 2024-11-10 09:18:58 0.001771426 209.0 (m) DEBRIS

Associated space launch

Navigation satellite providing location information for the Tsiklon-B navigation system

COSMOS 1275 DEB was lifted into orbit during the mission ‘Kosmos-3M | Parus 27’, on board a Kosmos-3M space rocket.

The launch took place on June 4, 1981, 3:41 p.m. from 132/2.

For more information about the launch, click the button.

Launch to space Kosmos-3M | Parus 27
Kosmos-3M | Parus 27

Agency: N/A

Status: Launch Successful

Launch date: June 4, 1981, 3:41 p.m. UTC

Rocket: Kosmos-3M

Launch pad: 132/2

Location: Plesetsk Cosmodrome, Russian Federation

...

Latest news about this satellite

There are no fresh news available about this satellite. Check back as we update our databases every day.


Newsletter sign-up

Weekly statistics, charts and insights to help you stay on top of the space industry.